• In Belarus
  • List of Countries
  • For 7 days
  • Water Temperature
  • Satellite Maps
  • Weather Map
  • Weather Widgets
  • user-avatar
    Login

    Hourly Weather Andora

    Today, 16 December, Saturday

    Time Temperature Precipitation Wind Pressure Humidity
    00:00 -7°C° 0 mm 3 mps 616 mmHg 78%
    01:00 -7°C° 0.1 mm 3 mps 617 mmHg 79%
    02:00 -7°C° 0.1 mm 3 mps 617 mmHg 79%
    03:00 -7°C° 0.1 mm 3 mps 617 mmHg 80%
    04:00 -7°C° 0 mm 3 mps 618 mmHg 80%
    05:00 -7°C° 0 mm 3 mps 618 mmHg 81%
    06:00 -7°C° 0 mm 2 mps 618 mmHg 82%
    07:00 -6°C° 0 mm 2 mps 619 mmHg 78%
    08:00 -7°C° 0 mm 3 mps 620 mmHg 74%
    09:00 -6°C° 0 mm 3 mps 621 mmHg 70%
    10:00 -5°C° 0 mm 3 mps 621 mmHg 64%
    11:00 -4°C° 0 mm 3 mps 622 mmHg 59%
    12:00 -4°C° 0 mm 4 mps 622 mmHg 56%
    13:00 -4°C° 0 mm 4 mps 622 mmHg 57%
    14:00 -4°C° 0 mm 4 mps 622 mmHg 59%
    15:00 -4°C° 0 mm 3 mps 623 mmHg 61%
    16:00 -6°C° 0 mm 3 mps 623 mmHg 65%
    17:00 -7°C° 0 mm 3 mps 623 mmHg 69%
    18:00 -8°C° 0 mm 3 mps 622 mmHg 74%
    19:00 -8°C° 0.1 mm 3 mps 623 mmHg 74%
    20:00 -8°C° 0.1 mm 3 mps 623 mmHg 75%
    21:00 -8°C° 0.1 mm 3 mps 624 mmHg 76%
    22:00 -8°C° 0.1 mm 3 mps 624 mmHg 76%
    23:00 -9°C° 0.1 mm 3 mps 624 mmHg 76%

    Tomorrow, 17 December, Sunday

    Time Temperature Precipitation Wind Pressure Humidity
    00:00 -9°C° 0.1 mm 3 mps 624 mmHg 77%
    01:00 -9°C° 0 mm 3 mps 624 mmHg 77%
    02:00 -9°C° 0 mm 3 mps 625 mmHg 77%
    03:00 -9°C° 0 mm 3 mps 625 mmHg 77%
    04:00 -10°C° 0 mm 3 mps 625 mmHg 76%
    05:00 -10°C° 0 mm 3 mps 625 mmHg 75%
    06:00 -10°C° 0 mm 3 mps 625 mmHg 74%
    07:00 -9°C° 0 mm 3 mps 626 mmHg 70%
    08:00 -8°C° 0 mm 3 mps 627 mmHg 67%
    09:00 -7°C° 0 mm 3 mps 627 mmHg 64%
    10:00 -6°C° 0 mm 3 mps 628 mmHg 60%
    11:00 -4°C° 0 mm 3 mps 628 mmHg 57%
    12:00 -2°C° 0 mm 3 mps 629 mmHg 54%
    13:00 -2°C° 0 mm 3 mps 629 mmHg 58%
    14:00 -2°C° 0 mm 3 mps 629 mmHg 61%
    15:00 -2°C° 0 mm 3 mps 629 mmHg 65%
    16:00 -4°C° 0 mm 3 mps 628 mmHg 69%
    17:00 -5°C° 0 mm 3 mps 628 mmHg 73%
    18:00 -6°C° 0 mm 3 mps 628 mmHg 78%
    19:00 -6°C° 0 mm 3 mps 629 mmHg 79%
    20:00 -6°C° 0 mm 3 mps 629 mmHg 80%
    21:00 -5°C° 0 mm 3 mps 629 mmHg 81%
    22:00 -5°C° 0 mm 3 mps 630 mmHg 81%
    23:00 -5°C° 0 mm 3 mps 630 mmHg 82%

    Day after tomorrow, 18 December, Monday

    Time Temperature Precipitation Wind Pressure Humidity
    00:00 -4°C° 0 mm 2 mps 630 mmHg 82%
    01:00 -5°C° 0 mm 2 mps 630 mmHg 82%
    02:00 -5°C° 0 mm 2 mps 630 mmHg 83%
    03:00 -5°C° 0 mm 2 mps 629 mmHg 84%
    04:00 -5°C° 0 mm 2 mps 629 mmHg 84%
    05:00 -6°C° 0 mm 3 mps 629 mmHg 83%
    06:00 -7°C° 0 mm 3 mps 630 mmHg 83%
    07:00 -4°C° 0 mm 2 mps 630 mmHg 80%
    08:00 -3°C° 0 mm 2 mps 631 mmHg 78%
    09:00 -2°C° 0 mm 2 mps 631 mmHg 75%
    10:00 -1°C° 0 mm 2 mps 631 mmHg 73%
    11:00 0°C° 0 mm 3 mps 631 mmHg 71%
    12:00 +1°C° 0 mm 3 mps 631 mmHg 69%
    13:00 +1°C° 0 mm 3 mps 631 mmHg 70%
    14:00 +1°C° 0 mm 3 mps 630 mmHg 72%
    15:00 +1°C° 0 mm 3 mps 630 mmHg 74%
    16:00 0°C° 0.2 mm 3 mps 629 mmHg 77%
    17:00 -1°C° 0.2 mm 3 mps 629 mmHg 81%
    18:00 -1°C° 0.2 mm 3 mps 628 mmHg 84%
    19:00 -1°C° 0.3 mm 3 mps 628 mmHg 85%
    20:00 -2°C° 0.3 mm 4 mps 628 mmHg 86%
    21:00 -1°C° 0.3 mm 4 mps 628 mmHg 86%
    22:00 -2°C° 0.2 mm 4 mps 628 mmHg 87%
    23:00 -2°C° 0.2 mm 4 mps 628 mmHg 87%

    19 December, Tuesday

    Time Temperature Precipitation Wind Pressure Humidity
    00:00 -2°C° 0.2 mm 4 mps 628 mmHg 88%
    01:00 -2°C° 0.1 mm 4 mps 628 mmHg 88%
    02:00 -3°C° 0.1 mm 4 mps 628 mmHg 88%
    03:00 -3°C° 0.1 mm 4 mps 628 mmHg 88%
    04:00 -4°C° 0 mm 4 mps 628 mmHg 88%
    05:00 -5°C° 0 mm 3 mps 629 mmHg 88%
    06:00 -5°C° 0 mm 3 mps 629 mmHg 88%
    07:00 -5°C° 0 mm 3 mps 629 mmHg 84%
    08:00 -5°C° 0 mm 3 mps 630 mmHg 81%
    09:00 -3°C° 0 mm 2 mps 631 mmHg 77%
    10:00 -2°C° 0 mm 2 mps 631 mmHg 71%
    11:00 -1°C° 0 mm 2 mps 632 mmHg 65%
    12:00 +2°C° 0 mm 2 mps 632 mmHg 59%
    13:00 +1°C° 0 mm 2 mps 632 mmHg 62%
    14:00 +1°C° 0 mm 2 mps 632 mmHg 64%
    15:00 +1°C° 0 mm 2 mps 632 mmHg 67%
    16:00 -2°C° 0 mm 2 mps 631 mmHg 72%
    17:00 -4°C° 0 mm 2 mps 631 mmHg 76%
    18:00 -6°C° 0 mm 2 mps 631 mmHg 81%
    19:00 -6°C° 0 mm 2 mps 631 mmHg 78%
    20:00 -6°C° 0 mm 2 mps 631 mmHg 75%
    21:00 -6°C° 0 mm 2 mps 631 mmHg 72%
    22:00 -6°C° 0 mm 2 mps 632 mmHg 71%
    23:00 -6°C° 0 mm 2 mps 632 mmHg 69%

    20 December, Wednesday

    Time Temperature Precipitation Wind Pressure Humidity
    00:00 -6°C° 0 mm 2 mps 632 mmHg 67%
    01:00 -6°C° 0 mm 2 mps 632 mmHg 65%
    02:00 -6°C° 0 mm 2 mps 631 mmHg 63%
    03:00 -6°C° 0 mm 2 mps 631 mmHg 61%
    04:00 -6°C° 0 mm 2 mps 631 mmHg 61%
    05:00 -5°C° 0 mm 2 mps 631 mmHg 61%
    06:00 -5°C° 0 mm 2 mps 631 mmHg 62%
    07:00 -4°C° 0 mm 2 mps 632 mmHg 60%
    08:00 -3°C° 0 mm 2 mps 633 mmHg 59%
    09:00 -2°C° 0 mm 2 mps 633 mmHg 58%
    10:00 +1°C° 0 mm 2 mps 634 mmHg 57%
    11:00 +3°C° 0 mm 2 mps 634 mmHg 56%
    12:00 +4°C° 0 mm 2 mps 634 mmHg 55%
    13:00 +4°C° 0 mm 2 mps 634 mmHg 58%
    14:00 +3°C° 0 mm 2 mps 634 mmHg 61%
    15:00 +3°C° 0 mm 2 mps 633 mmHg 63%
    16:00 +1°C° 0 mm 2 mps 633 mmHg 66%
    17:00 -1°C° 0 mm 2 mps 633 mmHg 70%
    18:00 -3°C° 0 mm 2 mps 632 mmHg 73%
    19:00 -3°C° 0 mm 2 mps 633 mmHg 72%
    20:00 -3°C° 0 mm 2 mps 633 mmHg 71%
    21:00 -3°C° 0 mm 2 mps 633 mmHg 70%
    22:00 -3°C° 0 mm 2 mps 633 mmHg 69%
    23:00 -3°C° 0 mm 2 mps 633 mmHg 69%

    21 December, Thursday

    Time Temperature Precipitation Wind Pressure Humidity
    00:00 -3°C° 0 mm 2 mps 633 mmHg 68%
    01:00 -3°C° 0 mm 2 mps 633 mmHg 69%
    02:00 -3°C° 0 mm 2 mps 633 mmHg 70%
    03:00 -3°C° 0 mm 2 mps 633 mmHg 71%
    04:00 -3°C° 0 mm 2 mps 633 mmHg 72%
    05:00 -3°C° 0 mm 2 mps 633 mmHg 73%
    06:00 -2°C° 0 mm 2 mps 633 mmHg 74%
    07:00 -1°C° 0 mm 2 mps 634 mmHg 72%
    08:00 +1°C° 0 mm 2 mps 634 mmHg 69%
    09:00 +2°C° 0 mm 2 mps 635 mmHg 67%
    10:00 +3°C° 0 mm 2 mps 635 mmHg 65%
    11:00 +5°C° 0 mm 2 mps 636 mmHg 63%
    12:00 +6°C° 0 mm 2 mps 636 mmHg 61%
    13:00 +6°C° 0 mm 2 mps 636 mmHg 63%
    14:00 +5°C° 0 mm 2 mps 635 mmHg 65%
    15:00 +6°C° 0 mm 1 mps 635 mmHg 68%
    16:00 +3°C° 0 mm 2 mps 634 mmHg 70%
    17:00 +2°C° 0 mm 2 mps 634 mmHg 72%
    18:00 -1°C° 0 mm 2 mps 633 mmHg 74%
    19:00 -1°C° 0 mm 2 mps 633 mmHg 72%
    20:00 -1°C° 0 mm 2 mps 634 mmHg 70%
    21:00 -1°C° 0 mm 2 mps 634 mmHg 68%
    22:00 -2°C° 0 mm 2 mps 634 mmHg 69%
    23:00 -2°C° 0 mm 2 mps 634 mmHg 69%
    Show more